CW1459 Weather Reports


time (UTC)temp
C
wind
direction
speed
KPH
gust
KPH
rain 1hr
cm
rain 24hr
cm
rain mn
cm
humidity
%
barometer
mb
20260831080323 21 360 0.0 1.6 0.00 0.00 0.00 93 1017.2
20260831075354 21 360 1.6 4.8 0.00 0.00 0.00 93 1017.1
20260831074313 21 86 1.6 3.2 0.00 0.00 0.00 93 1017.0
20260831073317 21 86 0.0 0.0 0.00 0.00 0.00 92 1017.0
20260831072342 21 86 0.0 3.2 0.00 0.00 0.00 92 1017.1
20260831071338 21 86 1.6 3.2 0.00 0.00 0.00 92 1017.1
20260831070339 21 86 1.6 3.2 0.00 0.00 0.00 92 1017.1
20260831065339 21 86 0.0 3.2 0.00 0.00 0.00 92 1017.4
20260831064321 21 86 1.6 3.2 0.00 0.00 0.00 92 1017.4
20260831063318 21 86 0.0 1.6 0.00 0.00 0.00 92 1017.5
20260831062318 22 86 0.0 4.8 0.00 0.00 0.00 92 1017.7
20260831061331 21 86 3.2 4.8 0.00 0.00 0.00 92 1017.7
20260831060358 22 86 0.0 3.2 0.00 0.00 0.00 92 1017.7
20260831055353 22 31 1.6 6.4 0.00 0.00 0.00 91 1017.9
20260831054330 22 176 3.2 4.8 0.00 0.00 0.00 91 1017.6
20260831053314 22 176 0.0 1.6 0.00 0.00 0.00 91 1017.5
20260831052332 22 176 0.0 0.0 0.00 0.00 0.00 91 1017.5
20260831051313 22 176 0.0 1.6 0.00 0.00 0.00 91 1017.5
20260831050336 22 176 0.0 3.2 0.00 0.00 0.00 91 1017.5
20260831045338 22 176 0.0 1.6 0.00 0.00 0.00 90 1017.5
20260831044358 22 176 0.0 1.6 0.00 0.00 0.00 90 1017.7
20260831043315 22 176 0.0 1.6 0.00 0.00 0.00 90 1017.8
20260831042313 22 176 0.0 1.6 0.00 0.00 0.00 90 1017.9
20260831041359 22 176 0.0 1.6 0.00 0.00 0.00 90 1017.9
20260831040333 22 176 0.0 1.6 0.00 0.00 0.00 89 1017.9
20260831035314 22 176 1.6 3.2 0.00 0.00 0.00 89 1017.9
20260831034336 22 176 0.0 0.0 0.00 0.00 0.00 89 1018.0
20260831033313 23 176 0.0 0.0 0.00 0.00 0.00 89 1018.1
20260831032332 23 176 1.6 3.2 0.00 0.00 0.00 88 1018.2
20260831031313 23 176 0.0 1.6 0.00 0.00 0.00 89 1018.3
20260831030333 23 176 0.0 1.6 0.00 0.00 0.00 88 1018.3
20260831025333 23 176 0.0 1.6 0.00 0.00 0.00 88 1018.2
20260831024338 23 176 0.0 1.6 0.00 0.00 0.00 88 1018.2
20260831023333 23 176 0.0 1.6 0.00 0.00 0.00 88 1018.1
20260831022322 23 176 0.0 0.0 0.00 0.00 0.00 87 1018.3
20260831021325 23 176 0.0 6.4 0.00 0.00 0.00 87 1018.3
20260831020329 23 134 3.2 8.0 0.00 0.00 0.00 87 1018.3
20260831015317 23 138 1.6 4.8 0.00 0.00 0.00 87 1018.3
20260831014313 24 221 0.0 1.6 0.00 0.00 0.00 87 1018.2
20260831013316 24 221 0.0 0.0 0.00 0.00 0.00 87 1018.2
20260831012323 24 221 0.0 1.6 0.00 0.00 0.00 87 1018.2
20260831011355 24 221 0.0 3.2 0.00 0.00 0.00 87 1018.2
20260831010313 24 221 0.0 1.6 0.00 0.00 0.00 86 1018.0
20260831005334 24 221 0.0 3.2 0.00 0.00 0.00 86 1017.6
20260831004316 24 221 0.0 3.2 0.00 0.00 0.00 84 1017.4
20260831003337 24 221 1.6 3.2 0.00 0.00 0.00 83 1017.3
20260831002318 25 221 1.6 3.2 0.00 0.00 0.00 82 1017.2
20260831001338 25 142 1.6 3.2 0.00 0.00 0.00 81 1017.0
20260831000355 25 138 1.6 8.0 0.00 0.00 0.00 79 1017.0
20260830235332 26 187 1.6 4.8 0.00 0.00 0.00 78 1016.8
20260830234312 26 165 3.2 6.4 0.00 0.00 0.00 77 1016.8
20260830233333 27 161 1.6 4.8 0.00 0.00 0.00 75 1016.8
20260830232319 27 161 1.6 8.0 0.00 0.00 0.00 75 1016.8
20260830231325 27 164 4.8 9.7 0.00 0.00 0.00 75 1016.9
20260830230332 28 169 3.2 8.0 0.00 0.00 0.00 74 1017.0
20260830225331 28 173 3.2 8.0 0.00 0.00 0.00 74 1017.1
20260830224336 28 185 6.4 11.3 0.00 0.00 0.00 73 1017.1
20260830223315 28 141 6.4 14.5 0.00 0.00 0.00 74 1017.1
20260830222318 28 128 6.4 14.5 0.00 0.00 0.00 73 1017.1
20260830221314 29 144 8.0 12.9 0.00 0.00 0.00 72 1017.0
20260830220321 29 143 6.4 11.3 0.00 0.00 0.00 71 1017.0
20260830215352 29 140 6.4 12.9 0.00 0.00 0.00 71 1017.0
20260830214319 30 140 6.4 16.1 0.00 0.00 0.00 71 1017.0
20260830213332 30 124 8.0 12.9 0.00 0.00 0.00 70 1016.9
20260830212336 29 148 4.8 12.9 0.00 0.00 0.00 70 1016.9
20260830211331 29 169 4.8 14.5 0.00 0.00 0.00 71 1016.9
20260830210330 29 163 1.6 12.9 0.00 0.00 0.00 72 1016.9
20260830205312 29 146 3.2 12.9 0.00 0.00 0.00 73 1017.0
20260830204327 28 351 3.2 6.4 0.00 0.00 0.00 76 1017.1
20260830203318 28 49 3.2 9.7 0.00 0.00 0.00 76 1017.2
20260830202331 28 5 6.4 12.9 0.00 0.00 0.00 76 1017.5
20260830201336 28 5 6.4 17.7 0.00 0.00 0.00 77 1017.5
20260830200329 27 148 0.0 4.8 0.00 0.00 0.00 76 1017.6
20260830195314 27 152 4.8 6.4 0.00 0.00 0.00 78 1017.5
20260830194334 27 157 3.2 11.3 0.00 0.00 0.00 79 1017.4
20260830193311 27 129 4.8 11.3 0.00 0.00 0.00 76 1017.1
20260830192311 28 178 8.0 12.9 0.00 0.00 0.00 73 1017.8
20260830191320 28 153 6.4 11.3 0.00 0.00 0.00 71 1017.9
20260830190311 29 213 8.0 14.5 0.00 0.00 0.00 67 1018.0
20260830185321 30 184 1.6 11.3 0.00 0.00 0.00 64 1018.1
20260830184320 31 233 6.4 11.3 0.00 0.00 0.00 64 1018.2
20260830183337 30 210 4.8 9.7 0.00 0.00 0.00 64 1018.4
20260830181317 30 128 4.8 11.3 0.00 0.00 0.00 68 1018.6
20260830180329 30 273 8.0 12.9 0.00 0.00 0.00 68 1018.9
20260830175324 30 163 8.0 14.5 0.00 0.00 0.00 68 1019.0
20260830174326 30 140 6.4 12.9 0.00 0.00 0.00 68 1019.0
20260830173332 29 173 4.8 11.3 0.00 0.00 0.00 69 1018.9
20260830172337 30 180 6.4 19.3 0.00 0.00 0.00 67 1019.2
20260830171400 30 189 9.7 14.5 0.00 0.00 0.00 70 1019.3
20260830170333 29 156 8.0 16.1 0.00 0.00 0.00 71 1019.5
20260830165327 29 184 6.4 16.1 0.00 0.00 0.00 72 1019.6
20260830164315 29 152 6.4 16.1 0.00 0.00 0.00 72 1019.6
20260830163348 28 157 9.7 22.5 0.00 0.00 0.00 73 1019.7
20260830162332 27 216 6.4 11.3 0.00 0.00 0.00 77 1019.9
20260830161335 27 175 8.0 11.3 0.00 0.00 0.00 76 1020.0
20260830160339 27 143 8.0 12.9 0.00 0.00 0.00 78 1020.1
20260830155317 26 149 4.8 11.3 0.00 0.00 0.00 78 1020.1
20260830154323 26 157 3.2 6.4 0.00 0.00 0.00 79 1020.2
20260830153326 26 157 3.2 8.0 0.00 0.00 0.00 77 1020.2
20260830152332 26 149 6.4 11.3 0.00 0.00 0.00 73 1020.2
20260830151339 27 162 8.0 14.5 0.00 0.00 0.00 74 1020.1
20260830150357 26 202 4.8 12.9 0.00 0.00 0.00 75 1020.1
20260830145318 26 215 6.4 14.5 0.00 0.00 0.00 77 1020.2
20260830144313 26 209 6.4 16.1 0.00 0.00 0.00 77 1020.1
20260830143324 26 215 8.0 12.9 0.00 0.00 0.00 75 1019.9
20260830142339 26 165 8.0 12.9 0.00 0.00 0.00 76 1019.9
20260830141313 26 209 6.4 12.9 0.00 0.00 0.00 77 1019.9
20260830140314 25 169 6.4 12.9 0.00 0.00 0.00 79 1019.9
20260830135337 24 104 6.4 12.9 0.00 0.00 0.00 82 1020.2
20260830134313 24 165 6.4 14.5 0.00 0.00 0.00 81 1020.2
20260830133349 24 199 4.8 12.9 0.00 0.00 0.00 81 1020.2
20260830132332 24 198 3.2 14.5 0.00 0.00 0.00 81 1020.4
20260830131328 24 191 9.7 16.1 0.00 0.00 0.00 83 1020.4
20260830130333 23 171 8.0 16.1 0.00 0.00 0.00 83 1020.4
20260830125337 23 146 9.7 19.3 0.00 0.00 0.00 84 1020.6
20260830124312 23 219 9.7 16.1 0.00 0.00 0.00 86 1020.7
20260830123328 22 209 6.4 17.7 0.00 0.00 0.00 87 1020.7
20260830122336 22 86 6.4 12.9 0.00 0.00 0.00 88 1020.8
20260830121336 22 150 4.8 14.5 0.00 0.00 0.00 88 1020.7
20260830120318 21 129 4.8 11.3 0.00 0.00 0.00 89 1020.8
20260830115331 21 175 3.2 8.0 0.00 0.00 0.00 90 1020.7
20260830114336 21 153 4.8 8.0 0.00 0.00 0.00 91 1020.6
20260830113325 20 171 3.2 9.7 0.00 0.00 0.00 91 1020.5
20260830112357 20 183 1.6 1.6 0.00 0.00 0.00 91 1020.6
20260830111314 20 183 0.0 1.6 0.00 0.00 0.00 90 1020.6
20260830110334 20 183 0.0 3.2 0.00 0.00 0.00 89 1020.6
20260830105335 20 183 0.0 3.2 0.00 0.00 0.00 89 1020.5
20260830104319 20 164 1.6 8.0 0.00 0.00 0.00 89 1020.4
20260830103336 20 155 1.6 8.0 0.00 0.00 0.00 88 1020.4
20260830102313 20 143 3.2 4.8 0.00 0.00 0.00 88 1020.4
20260830101312 20 139 3.2 6.4 0.00 0.00 0.00 88 1020.4
20260830100312 20 148 4.8 11.3 0.00 0.00 0.00 88 1020.3
20260830095312 20 173 6.4 11.3 0.00 0.00 0.00 88 1020.3
20260830094316 20 149 8.0 14.5 0.00 0.00 0.00 88 1020.4
20260830093346 20 161 6.4 11.3 0.00 0.00 0.00 88 1020.6
20260830092323 20 170 4.8 9.7 0.00 0.00 0.00 88 1020.7
20260830091336 21 161 3.2 11.3 0.00 0.00 0.00 88 1020.7
20260830090340 20 125 6.4 11.3 0.00 0.00 0.00 88 1020.6
20260830085342 20 162 4.8 11.3 0.00 0.00 0.00 87 1020.6
20260830084333 21 138 4.8 11.3 0.00 0.00 0.00 87 1020.6
20260830083330 21 165 4.8 9.7 0.00 0.00 0.00 86 1020.6
20260830082345 20 138 8.0 14.5 0.00 0.00 0.00 85 1020.7
20260830081316 21 163 3.2 11.3 0.00 0.00 0.00 83 1020.7